Location: Freiburg+im+Breisgau
(48.0359°N, 7.8195°E)
Time: 14:54:47
(UTC+02:00)

ISS - Pass Details

Date: 04 January 2018
Orbit: 402 x 408 km, 51.6° (Epoch: 20 July)

Event Time Altitude Azimuth Distance (km) Brightness Sun altitude
Exits shadow 05:29:30 20° 65° (ENE) 1,036 -1.2 -27.2°
Drops below altitude 10° 05:30:40 10° 67° (ENE) 1,501 -0.2 -27.0°
Enters shadow 06:27:04 -68° 258° (WSW) 12,284 3.6 -17.7°
